| time (UTC) | temp F | wind direction | speed knots | gust knots | rain 1hr in | rain 24hr in | rain mn in | humidity % | barometer mb |
| 20260505093103 | 62 | 99 | 0.0 | 0.9 | 0.01 | 0.01 | 0.01 | 77 | 1005.1 |
| 20260505091612 | 62 | 96 | 0.0 | 1.7 | 0.01 | 0.01 | 0.01 | 77 | 1005.0 |
| 20260505090058 | 62 | 122 | 0.0 | 6.1 | 0.01 | 0.01 | 0.01 | 77 | 1005.3 |
| 20260505084557 | 62 | 117 | 0.0 | 4.3 | 0.01 | 0.01 | 0.01 | 77 | 1005.6 |
| 20260505083053 | 64 | 107 | 0.0 | 1.7 | 0.00 | 0.00 | 0.00 | 73 | 1005.6 |
| 20260505081553 | 65 | 79 | 0.0 | 2.6 | 0.00 | 0.00 | 0.00 | 69 | 1005.8 |
| 20260505080054 | 65 | 49 | 0.0 | 4.3 | 0.00 | 0.00 | 0.00 | 68 | 1006.0 |
| 20260505074546 | 66 | 329 | 0.0 | 5.2 | 0.00 | 0.01 | 0.00 | 70 | 1006.2 |
| 20260505073046 | 67 | 360 | 7.8 | 13.9 | 0.00 | 0.01 | 0.00 | 68 | 1006.7 |
| 20260505071539 | 67 | 160 | 0.0 | 9.6 | 0.00 | 0.01 | 0.00 | 66 | 1005.0 |
| 20260505070046 | 68 | 182 | 0.0 | 10.4 | 0.00 | 0.01 | 0.00 | 65 | 1004.6 |
| 20260505064535 | 68 | 186 | 3.5 | 13.0 | 0.00 | 0.09 | 0.00 | 65 | 1004.6 |
| 20260505063033 | 68 | 190 | 0.9 | 13.0 | 0.00 | 0.09 | 0.00 | 64 | 1004.6 |
| 20260505061538 | 68 | 179 | 0.9 | 13.0 | 0.00 | 0.09 | 0.00 | 64 | 1004.4 |
| 20260505060028 | 69 | 174 | 3.5 | 21.7 | 0.00 | 0.09 | 0.00 | 63 | 1004.3 |
| 20260505054534 | 69 | 138 | 2.6 | 15.6 | 0.00 | 0.09 | 0.00 | 62 | 1004.1 |
| 20260505053028 | 69 | 146 | 4.3 | 20.9 | 0.00 | 0.09 | 0.00 | 61 | 1004.1 |
| 20260505051521 | 70 | 156 | 4.3 | 18.2 | 0.00 | 0.09 | 0.00 | 61 | 1003.8 |
| 20260505041529 | 70 | 144 | 4.3 | 17.4 | 0.00 | 0.09 | 0.09 | 60 | 1003.6 |
| 20260505040016 | 71 | 127 | 2.6 | 21.7 | 0.00 | 0.09 | 0.09 | 59 | 1003.8 |
| 20260505034521 | 71 | 192 | 4.3 | 19.1 | 0.00 | 0.09 | 0.09 | 58 | 1003.9 |
| 20260505033016 | 71 | 134 | 3.5 | 13.9 | 0.00 | 0.09 | 0.09 | 57 | 1004.0 |
| 20260505031523 | 72 | 152 | 0.9 | 16.5 | 0.00 | 0.09 | 0.09 | 57 | 1004.0 |
| 20260505030012 | 72 | 178 | 4.3 | 17.4 | 0.00 | 0.09 | 0.09 | 56 | 1003.8 |
| 20260505024511 | 72 | 138 | 3.5 | 17.4 | 0.00 | 0.09 | 0.09 | 55 | 1003.4 |
| 20260505023110 | 73 | 136 | 4.3 | 16.5 | 0.00 | 0.09 | 0.09 | 54 | 1003.4 |
| 20260505021510 | 73 | 190 | 5.2 | 17.4 | 0.00 | 0.09 | 0.09 | 54 | 1003.1 |
| 20260505020009 | 73 | 180 | 3.5 | 20.0 | 0.00 | 0.09 | 0.09 | 54 | 1003.0 |
| 20260505014509 | 73 | 150 | 2.6 | 13.9 | 0.00 | 0.09 | 0.09 | 53 | 1002.8 |
| 20260505013009 | 73 | 159 | 5.2 | 19.1 | 0.00 | 0.09 | 0.09 | 53 | 1002.7 |
| 20260505011506 | 74 | 173 | 1.7 | 13.9 | 0.00 | 0.09 | 0.09 | 52 | 1002.6 |
| 20260505010005 | 74 | 172 | 3.5 | 22.6 | 0.00 | 0.09 | 0.09 | 52 | 1002.3 |
| 20260505004505 | 74 | 121 | 1.7 | 17.4 | 0.00 | 0.09 | 0.09 | 51 | 1002.3 |
| 20260505003004 | 75 | 161 | 3.5 | 19.1 | 0.00 | 0.09 | 0.09 | 51 | 1002.2 |
| 20260505001504 | 76 | 151 | 2.6 | 15.6 | 0.00 | 0.09 | 0.09 | 50 | 1002.0 |
| 20260505000006 | 76 | 140 | 7.8 | 14.8 | 0.00 | 0.09 | 0.09 | 49 | 1002.0 |
| 20260504234502 | 77 | 157 | 8.7 | 19.1 | 0.00 | 0.09 | 0.09 | 49 | 1001.9 |
| 20260504233112 | 77 | 153 | 6.1 | 17.4 | 0.00 | 0.09 | 0.09 | 48 | 1002.2 |
| 20260504231601 | 76 | 157 | 5.2 | 14.8 | 0.00 | 0.09 | 0.09 | 50 | 1002.2 |
| 20260504230055 | 76 | 150 | 4.3 | 20.9 | 0.00 | 0.09 | 0.09 | 50 | 1002.6 |
| 20260504224558 | 76 | 136 | 7.0 | 16.5 | 0.00 | 0.09 | 0.09 | 50 | 1002.7 |
| 20260504223107 | 76 | 137 | 7.8 | 15.6 | 0.00 | 0.09 | 0.09 | 52 | 1002.7 |
| 20260504221544 | 75 | 130 | 5.2 | 15.6 | 0.00 | 0.09 | 0.09 | 55 | 1002.7 |
| 20260504220043 | 74 | 142 | 5.2 | 20.0 | 0.00 | 0.09 | 0.09 | 56 | 1002.8 |
| 20260504214539 | 72 | 146 | 8.7 | 13.9 | 0.00 | 0.09 | 0.09 | 60 | 1002.8 |
| 20260504213049 | 71 | 132 | 0.0 | 14.8 | 0.00 | 0.09 | 0.09 | 62 | 1003.1 |
| 20260504211535 | 69 | 133 | 3.5 | 14.8 | 0.00 | 0.09 | 0.09 | 64 | 1003.0 |
| 20260504210035 | 67 | 132 | 1.7 | 14.8 | 0.00 | 0.09 | 0.09 | 71 | 1003.5 |
| 20260504204541 | 66 | 131 | 8.7 | 13.9 | 0.00 | 0.09 | 0.09 | 75 | 1003.9 |
| 20260504203030 | 66 | 127 | 6.1 | 13.0 | 0.00 | 0.09 | 0.09 | 73 | 1004.1 |
| 20260504201528 | 67 | 120 | 10.4 | 20.0 | 0.00 | 0.09 | 0.09 | 68 | 1003.8 |
| 20260504200025 | 67 | 123 | 0.9 | 6.1 | 0.00 | 0.09 | 0.09 | 70 | 1005.1 |
| 20260504194523 | 67 | 350 | 0.0 | 0.0 | 0.00 | 0.09 | 0.09 | 68 | 1006.5 |
| 20260504193026 | 67 | 340 | 0.0 | 0.0 | 0.00 | 0.09 | 0.09 | 68 | 1005.9 |
| 20260504191525 | 67 | 355 | 0.0 | 0.0 | 0.00 | 0.09 | 0.09 | 68 | 1005.9 |
| 20260504190022 | 68 | 343 | 0.0 | 0.9 | 0.00 | 0.09 | 0.09 | 67 | 1005.8 |
| 20260504184521 | 70 | 182 | 0.0 | 0.0 | 0.00 | 0.09 | 0.09 | 63 | 1005.8 |
| 20260504183021 | 70 | 182 | 0.0 | 0.0 | 0.00 | 0.09 | 0.09 | 60 | 1005.4 |
| 20260504181520 | 70 | 172 | 0.0 | 8.7 | 0.00 | 0.09 | 0.09 | 60 | 1005.3 |
| 20260504180020 | 69 | 135 | 0.0 | 10.4 | 0.00 | 0.09 | 0.09 | 62 | 1005.2 |
| 20260504174519 | 69 | 144 | 0.0 | 8.7 | 0.00 | 0.09 | 0.09 | 63 | 1005.4 |
| 20260504173018 | 68 | 148 | 1.7 | 10.4 | 0.00 | 0.09 | 0.09 | 64 | 1005.6 |
| 20260504171514 | 69 | 152 | 0.0 | 9.6 | 0.00 | 0.09 | 0.09 | 63 | 1006.2 |